| time (UTC) | temp C | wind direction | speed KPH | gust KPH | rain 1hr cm | rain 24hr cm | rain mn cm | humidity % | barometer mb |
| 20260906225122 | 28 | 73 | 0.0 | 9.7 | 0.00 | 0.00 | 0.00 | 15 | |
| 20260906224622 | 28 | 142 | 4.8 | 12.9 | 0.00 | 0.00 | 0.00 | 15 | |
| 20260906224122 | 28 | 116 | 6.4 | 11.3 | 0.00 | 0.00 | 0.00 | 15 | |
| 20260906223622 | 28 | 129 | 0.0 | 16.1 | 0.00 | 0.00 | 0.00 | 14 | |
| 20260906223122 | 28 | 180 | 9.7 | 20.9 | 0.00 | 0.00 | 0.00 | 14 | |
| 20260906222622 | 28 | 133 | 0.0 | 12.9 | 0.00 | 0.00 | 0.00 | 15 | |
| 20260906222122 | 28 | 113 | 11.3 | 20.9 | 0.00 | 0.00 | 0.00 | 14 | |
| 20260906221622 | 28 | 123 | 12.9 | 24.1 | 0.00 | 0.00 | 0.00 | 13 | |
| 20260906221122 | 28 | 171 | 0.0 | 20.9 | 0.00 | 0.00 | 0.00 | 13 | |
| 20260906220622 | 28 | 99 | 11.3 | 25.7 | 0.00 | 0.00 | 0.00 | 13 | |
| 20260906220122 | 28 | 133 | 14.5 | 32.2 | 0.00 | 0.00 | 0.00 | 12 | |
| 20260906215622 | 29 | 201 | 9.7 | 17.7 | 0.00 | 0.00 | 0.00 | 11 | |
| 20260906215122 | 29 | 140 | 8.0 | 17.7 | 0.00 | 0.00 | 0.00 | 11 | |
| 20260906214622 | 29 | 129 | 8.0 | 17.7 | 0.00 | 0.00 | 0.00 | 11 | |
| 20260906214122 | 29 | 154 | 11.3 | 17.7 | 0.00 | 0.00 | 0.00 | 11 | |
| 20260906213622 | 29 | 174 | 8.0 | 17.7 | 0.00 | 0.00 | 0.00 | 11 | |
| 20260906213122 | 29 | 171 | 9.7 | 17.7 | 0.00 | 0.00 | 0.00 | 10 | |
| 20260906212622 | 29 | 120 | 11.3 | 20.9 | 0.00 | 0.00 | 0.00 | 10 | |
| 20260906212122 | 29 | 82 | 3.2 | 11.3 | 0.00 | 0.00 | 0.00 | 11 | |
| 20260906211622 | 29 | 68 | 0.0 | 24.1 | 0.00 | 0.00 | 0.00 | 11 | |
| 20260906211122 | 29 | 126 | 9.7 | 22.5 | 0.00 | 0.00 | 0.00 | 12 | |
| 20260906210622 | 29 | 174 | 6.4 | 17.7 | 0.00 | 0.00 | 0.00 | 12 | |
| 20260906210122 | 28 | 122 | 14.5 | 17.7 | 0.00 | 0.00 | 0.00 | 13 | |
| 20260906205622 | 28 | 187 | 14.5 | 16.1 | 0.00 | 0.00 | 0.00 | 13 | |
| 20260906205122 | 28 | 42 | 4.8 | 19.3 | 0.00 | 0.00 | 0.00 | 15 | |
| 20260906204622 | 28 | 70 | 8.0 | 17.7 | 0.00 | 0.00 | 0.00 | 16 | |
| 20260906204122 | 28 | 144 | 12.9 | 19.3 | 0.00 | 0.00 | 0.00 | 16 | |
| 20260906203622 | 28 | 60 | 3.2 | 11.3 | 0.00 | 0.00 | 0.00 | 16 | |
| 20260906203122 | 28 | 174 | 9.7 | 19.3 | 0.00 | 0.00 | 0.00 | 16 | |
| 20260906202622 | 28 | 119 | 11.3 | 19.3 | 0.00 | 0.00 | 0.00 | 16 | |
| 20260906202122 | 27 | 116 | 8.0 | 19.3 | 0.00 | 0.00 | 0.00 | 16 | |
| 20260906201622 | 27 | 106 | 14.5 | 17.7 | 0.00 | 0.00 | 0.00 | 16 | |
| 20260906201122 | 28 | 219 | 0.0 | 16.1 | 0.00 | 0.00 | 0.00 | 17 | |
| 20260906200622 | 27 | 146 | 11.3 | 16.1 | 0.00 | 0.00 | 0.00 | 17 | |
| 20260906200122 | 27 | 109 | 9.7 | 11.3 | 0.00 | 0.00 | 0.00 | 18 | |
| 20260906195622 | 27 | 177 | 6.4 | 14.5 | 0.00 | 0.00 | 0.00 | 19 | |
| 20260906195122 | 27 | 150 | 0.0 | 1.6 | 0.00 | 0.00 | 0.00 | 20 | |
| 20260906194622 | 27 | 150 | 0.0 | 11.3 | 0.00 | 0.00 | 0.00 | 20 | |
| 20260906194122 | 27 | 119 | 8.0 | 16.1 | 0.00 | 0.00 | 0.00 | 21 | |
| 20260906193623 | 27 | 130 | 0.0 | 11.3 | 0.00 | 0.00 | 0.00 | 21 | |
| 20260906193122 | 26 | 180 | 8.0 | 16.1 | 0.00 | 0.00 | 0.00 | 22 | |
| 20260906192622 | 26 | 104 | 11.3 | 16.1 | 0.00 | 0.00 | 0.00 | 22 | |
| 20260906192122 | 26 | 130 | 0.0 | 11.3 | 0.00 | 0.00 | 0.00 | 23 | |
| 20260906191622 | 26 | 182 | 9.7 | 12.9 | 0.00 | 0.00 | 0.00 | 23 | |
| 20260906191122 | 25 | 120 | 0.0 | 11.3 | 0.00 | 0.00 | 0.00 | 23 | |
| 20260906190622 | 25 | 154 | 6.4 | 12.9 | 0.00 | 0.00 | 0.00 | 23 | |
| 20260906190122 | 26 | 104 | 9.7 | 12.9 | 0.00 | 0.00 | 0.00 | 24 | |
| 20260906185622 | 26 | 113 | 0.0 | 14.5 | 0.00 | 0.00 | 0.00 | 23 | |
| 20260906185122 | 26 | 132 | 6.4 | 16.1 | 0.00 | 0.00 | 0.00 | 23 | |
| 20260906184622 | 26 | 98 | 0.0 | 11.3 | 0.00 | 0.00 | 0.00 | 24 | |
| 20260906184122 | 26 | 167 | 8.0 | 11.3 | 0.00 | 0.00 | 0.00 | 24 | |
| 20260906183622 | 26 | 175 | 11.3 | 16.1 | 0.00 | 0.00 | 0.00 | 23 | |
| 20260906183122 | 26 | 175 | 9.7 | 16.1 | 0.00 | 0.00 | 0.00 | 23 | |
| 20260906182622 | 26 | 225 | 0.0 | 9.7 | 0.00 | 0.00 | 0.00 | 24 | |
| 20260906182122 | 26 | 165 | 4.8 | 11.3 | 0.00 | 0.00 | 0.00 | 24 | |
| 20260906181622 | 25 | 61 | 0.0 | 11.3 | 0.00 | 0.00 | 0.00 | 26 | |
| 20260906181122 | 25 | 146 | 11.3 | 14.5 | 0.00 | 0.00 | 0.00 | 27 | |
| 20260906180623 | 25 | 123 | 8.0 | 14.5 | 0.00 | 0.00 | 0.00 | 27 | |
| 20260906180123 | 25 | 164 | 9.7 | 17.7 | 0.00 | 0.00 | 0.00 | 27 | |
| 20260906175622 | 25 | 239 | 3.2 | 17.7 | 0.00 | 0.00 | 0.00 | 28 | |
| 20260906175122 | 25 | 143 | 6.4 | 17.7 | 0.00 | 0.00 | 0.00 | 29 | |
| 20260906174622 | 24 | 178 | 12.9 | 17.7 | 0.00 | 0.00 | 0.00 | 30 | |
| 20260906174122 | 24 | 165 | 6.4 | 16.1 | 0.00 | 0.00 | 0.00 | 31 | |
| 20260906173622 | 24 | 189 | 1.6 | 11.3 | 0.00 | 0.00 | 0.00 | 33 | |
| 20260906173122 | 23 | 146 | 4.8 | 12.9 | 0.00 | 0.00 | 0.00 | 33 | |
| 20260906172622 | 23 | 174 | 11.3 | 16.1 | 0.00 | 0.00 | 0.00 | 34 | |
| 20260906172122 | 23 | 168 | 9.7 | 12.9 | 0.00 | 0.00 | 0.00 | 34 | |
| 20260906171622 | 23 | 185 | 12.9 | 12.9 | 0.00 | 0.00 | 0.00 | 33 | |
| 20260906171122 | 23 | 125 | 11.3 | 14.5 | 0.00 | 0.00 | 0.00 | 32 | |
| 20260906170622 | 23 | 133 | 0.0 | 12.9 | 0.00 | 0.00 | 0.00 | 33 | |
| 20260906170122 | 23 | 150 | 8.0 | 14.5 | 0.00 | 0.00 | 0.00 | 34 | |
| 20260906165622 | 22 | 177 | 4.8 | 14.5 | 0.00 | 0.00 | 0.00 | 34 | |
| 20260906165122 | 22 | 175 | 0.0 | 12.9 | 0.00 | 0.00 | 0.00 | 34 | |
| 20260906164622 | 22 | 126 | 4.8 | 12.9 | 0.00 | 0.00 | 0.00 | 34 | |
| 20260906164122 | 22 | 182 | 1.6 | 9.7 | 0.00 | 0.00 | 0.00 | 36 | |
| 20260906163622 | 22 | 151 | 0.0 | 4.8 | 0.00 | 0.00 | 0.00 | 36 | |
| 20260906163122 | 22 | 139 | 0.0 | 12.9 | 0.00 | 0.00 | 0.00 | 36 | |
| 20260906162623 | 22 | 136 | 4.8 | 11.3 | 0.00 | 0.00 | 0.00 | 37 | |
| 20260906162122 | 21 | 189 | 3.2 | 8.0 | 0.00 | 0.00 | 0.00 | 35 | |
| 20260906161623 | 22 | 80 | 0.0 | 0.0 | 0.00 | 0.00 | 0.00 | 37 | |
| 20260906161122 | 21 | 80 | 0.0 | 0.0 | 0.00 | 0.00 | 0.00 | 36 | |
| 20260906160623 | 21 | 80 | 0.0 | 0.0 | 0.00 | 0.00 | 0.00 | 37 | |
| 20260906160123 | 21 | 80 | 0.0 | 0.0 | 0.00 | 0.00 | 0.00 | 38 | |
| 20260906155623 | 21 | 80 | 0.0 | 0.0 | 0.00 | 0.00 | 0.00 | 38 | |
| 20260906155123 | 21 | 80 | 0.0 | 0.0 | 0.00 | 0.00 | 0.00 | 39 | |
| 20260906154623 | 21 | 80 | 0.0 | 0.0 | 0.00 | 0.00 | 0.00 | 38 | |
| 20260906154123 | 21 | 80 | 0.0 | 0.0 | 0.00 | 0.00 | 0.00 | 40 | |
| 20260906153623 | 21 | 80 | 0.0 | 0.0 | 0.00 | 0.00 | 0.00 | 41 | |
| 20260906153123 | 21 | 80 | 0.0 | 0.0 | 0.00 | 0.00 | 0.00 | 41 | |
| 20260906152623 | 20 | 80 | 0.0 | 0.0 | 0.00 | 0.00 | 0.00 | 41 | |
| 20260906152123 | 20 | 80 | 0.0 | 0.0 | 0.00 | 0.00 | 0.00 | 42 | |
| 20260906151623 | 20 | 80 | 0.0 | 4.8 | 0.00 | 0.00 | 0.00 | 43 | |
| 20260906151123 | 20 | 111 | 4.8 | 4.8 | 0.00 | 0.00 | 0.00 | 43 | |
| 20260906150623 | 20 | 146 | 0.0 | 3.2 | 0.00 | 0.00 | 0.00 | 44 | |
| 20260906150123 | 19 | 50 | 0.0 | 0.0 | 0.00 | 0.00 | 0.00 | 45 | |
| 20260906145623 | 18 | 50 | 0.0 | 0.0 | 0.00 | 0.00 | 0.00 | 46 | |
| 20260906145123 | 18 | 50 | 0.0 | 0.0 | 0.00 | 0.00 | 0.00 | 48 | |
| 20260906144623 | 17 | 50 | 0.0 | 1.6 | 0.00 | 0.00 | 0.00 | 50 | |
| 20260906144123 | 17 | 123 | 0.0 | 0.0 | 0.00 | 0.00 | 0.00 | 52 | |
| 20260906143623 | 16 | 123 | 0.0 | 0.0 | 0.00 | 0.00 | 0.00 | 53 | |
| 20260906143123 | 16 | 123 | 0.0 | 0.0 | 0.00 | 0.00 | 0.00 | 54 | |
| 20260906142623 | 15 | 123 | 0.0 | 0.0 | 0.00 | 0.00 | 0.00 | 56 | |
| 20260906142123 | 15 | 123 | 0.0 | 0.0 | 0.00 | 0.00 | 0.00 | 56 | |
| 20260906141623 | 15 | 123 | 0.0 | 0.0 | 0.00 | 0.00 | 0.00 | 58 | |
| 20260906141123 | 15 | 123 | 0.0 | 0.0 | 0.00 | 0.00 | 0.00 | 60 | |
| 20260906140623 | 14 | 123 | 0.0 | 0.0 | 0.00 | 0.00 | 0.00 | 62 | |
| 20260906140123 | 13 | 123 | 0.0 | 0.0 | 0.00 | 0.00 | 0.00 | 63 | |
| 20260906135623 | 13 | 123 | 0.0 | 0.0 | 0.00 | 0.00 | 0.00 | 65 | |
| 20260906135123 | 12 | 123 | 0.0 | 1.6 | 0.00 | 0.00 | 0.00 | 68 | |
| 20260906134623 | 12 | 226 | 0.0 | 0.0 | 0.00 | 0.00 | 0.00 | 70 | |
| 20260906134123 | 11 | 226 | 0.0 | 0.0 | 0.00 | 0.00 | 0.00 | 73 | |
| 20260906133623 | 11 | 226 | 0.0 | 0.0 | 0.00 | 0.00 | 0.00 | 74 | |
| 20260906133123 | 11 | 226 | 0.0 | 0.0 | 0.00 | 0.00 | 0.00 | 75 | |
| 20260906132623 | 11 | 226 | 0.0 | 0.0 | 0.00 | 0.00 | 0.00 | 75 | |
| 20260906132123 | 10 | 226 | 0.0 | 0.0 | 0.00 | 0.00 | 0.00 | 76 | |
| 20260906131623 | 10 | 226 | 0.0 | 0.0 | 0.00 | 0.00 | 0.00 | 79 | |
| 20260906131123 | 10 | 226 | 0.0 | 0.0 | 0.00 | 0.00 | 0.00 | 79 | |
| 20260906130623 | 10 | 226 | 0.0 | 0.0 | 0.00 | 0.00 | 0.00 | 79 | |
| 20260906130123 | 10 | 226 | 0.0 | 0.0 | 0.00 | 0.00 | 0.00 | 79 | |
| 20260906125623 | 10 | 226 | 0.0 | 0.0 | 0.00 | 0.00 | 0.00 | 80 | |
| 20260906125123 | 10 | 226 | 0.0 | 0.0 | 0.00 | 0.00 | 0.00 | 80 | |
| 20260906124623 | 10 | 226 | 0.0 | 0.0 | 0.00 | 0.00 | 0.00 | 77 | |
| 20260906124123 | 10 | 226 | 0.0 | 0.0 | 0.00 | 0.00 | 0.00 | 76 | |
| 20260906123623 | 10 | 226 | 0.0 | 0.0 | 0.00 | 0.00 | 0.00 | 75 | |
| 20260906123123 | 10 | 226 | 0.0 | 0.0 | 0.00 | 0.00 | 0.00 | 75 | |
| 20260906122623 | 10 | 226 | 0.0 | 0.0 | 0.00 | 0.00 | 0.00 | 76 | |
| 20260906122123 | 10 | 226 | 0.0 | 0.0 | 0.00 | 0.00 | 0.00 | 74 | |
| 20260906121623 | 10 | 226 | 0.0 | 1.6 | 0.00 | 0.00 | 0.00 | 73 | |
| 20260906121123 | 11 | 201 | 1.6 | 1.6 | 0.00 | 0.00 | 0.00 | 73 | |
| 20260906120623 | 11 | 180 | 0.0 | 0.0 | 0.00 | 0.00 | 0.00 | 74 | |
| 20260906120123 | 11 | 180 | 0.0 | 0.0 | 0.00 | 0.00 | 0.00 | 74 | |
| 20260906115623 | 11 | 180 | 0.0 | 0.0 | 0.00 | 0.00 | 0.00 | 73 | |
| 20260906115123 | 11 | 180 | 0.0 | 4.8 | 0.00 | 0.00 | 0.00 | 72 | |
| 20260906114623 | 12 | 330 | 0.0 | 0.0 | 0.00 | 0.00 | 0.00 | 71 | |
| 20260906114123 | 12 | 330 | 0.0 | 0.0 | 0.00 | 0.00 | 0.00 | 70 | |
| 20260906113623 | 11 | 330 | 0.0 | 0.0 | 0.00 | 0.00 | 0.00 | 73 | |
| 20260906113123 | 11 | 330 | 0.0 | 0.0 | 0.00 | 0.00 | 0.00 | 73 | |
| 20260906112623 | 11 | 330 | 0.0 | 0.0 | 0.00 | 0.00 | 0.00 | 73 | |
| 20260906112123 | 11 | 330 | 0.0 | 0.0 | 0.00 | 0.00 | 0.00 | 73 | |
| 20260906111623 | 11 | 330 | 0.0 | 6.4 | 0.00 | 0.00 | 0.00 | 72 | |
| 20260906111123 | 12 | 279 | 0.0 | 0.0 | 0.00 | 0.00 | 0.00 | 71 | |
| 20260906110623 | 12 | 279 | 0.0 | 0.0 | 0.00 | 0.00 | 0.00 | 70 | |
| 20260906110123 | 11 | 279 | 0.0 | 0.0 | 0.00 | 0.00 | 0.00 | 70 | |
| 20260906105623 | 11 | 279 | 0.0 | 0.0 | 0.00 | 0.00 | 0.00 | 71 | |
| 20260906105123 | 12 | 279 | 0.0 | 0.0 | 0.00 | 0.00 | 0.00 | 72 | |
| 20260906104623 | 12 | 279 | 0.0 | 0.0 | 0.00 | 0.00 | 0.00 | 73 | |
| 20260906104123 | 12 | 279 | 0.0 | 0.0 | 0.00 | 0.00 | 0.00 | 73 | |
| 20260906103623 | 12 | 279 | 0.0 | 0.0 | 0.00 | 0.00 | 0.00 | 71 | |
| 20260906103123 | 12 | 279 | 0.0 | 0.0 | 0.00 | 0.00 | 0.00 | 72 | |
| 20260906102623 | 12 | 279 | 0.0 | 0.0 | 0.00 | 0.00 | 0.00 | 72 | |
| 20260906102123 | 12 | 279 | 0.0 | 0.0 | 0.00 | 0.00 | 0.00 | 73 | |
| 20260906101623 | 12 | 279 | 0.0 | 0.0 | 0.00 | 0.00 | 0.00 | 72 | |
| 20260906101123 | 12 | 279 | 0.0 | 0.0 | 0.00 | 0.00 | 0.00 | 72 | |
| 20260906100623 | 12 | 279 | 0.0 | 0.0 | 0.00 | 0.00 | 0.00 | 72 | |
| 20260906100123 | 12 | 279 | 0.0 | 0.0 | 0.00 | 0.00 | 0.00 | 72 | |
| 20260906095623 | 12 | 279 | 0.0 | 0.0 | 0.00 | 0.00 | 0.00 | 69 | |
| 20260906095123 | 13 | 279 | 0.0 | 0.0 | 0.00 | 0.00 | 0.00 | 70 | |
| 20260906094623 | 13 | 279 | 0.0 | 0.0 | 0.00 | 0.00 | 0.00 | 67 | |
| 20260906094123 | 13 | 279 | 0.0 | 0.0 | 0.00 | 0.00 | 0.00 | 68 | |
| 20260906093623 | 13 | 279 | 0.0 | 0.0 | 0.00 | 0.00 | 0.00 | 67 | |
| 20260906093123 | 13 | 279 | 0.0 | 0.0 | 0.00 | 0.00 | 0.00 | 67 | |
| 20260906092623 | 13 | 279 | 0.0 | 0.0 | 0.00 | 0.00 | 0.00 | 67 | |
| 20260906092123 | 13 | 279 | 0.0 | 0.0 | 0.00 | 0.00 | 0.00 | 64 | |
| 20260906091623 | 13 | 279 | 0.0 | 0.0 | 0.00 | 0.00 | 0.00 | 65 | |
| 20260906091123 | 13 | 279 | 0.0 | 0.0 | 0.00 | 0.00 | 0.00 | 63 | |
| 20260906090623 | 14 | 279 | 0.0 | 0.0 | 0.00 | 0.00 | 0.00 | 64 | |
| 20260906090123 | 14 | 279 | 0.0 | 0.0 | 0.00 | 0.00 | 0.00 | 63 | |
| 20260906085623 | 14 | 279 | 0.0 | 0.0 | 0.00 | 0.00 | 0.00 | 62 | |
| 20260906085123 | 14 | 279 | 0.0 | 0.0 | 0.00 | 0.00 | 0.00 | 61 | |
| 20260906084623 | 14 | 279 | 0.0 | 0.0 | 0.00 | 0.00 | 0.00 | 62 | |
| 20260906084123 | 14 | 279 | 0.0 | 0.0 | 0.00 | 0.00 | 0.00 | 62 | |
| 20260906083623 | 14 | 279 | 0.0 | 0.0 | 0.00 | 0.00 | 0.00 | 61 | |
| 20260906083123 | 14 | 279 | 0.0 | 0.0 | 0.00 | 0.00 | 0.00 | 62 | |
| 20260906082623 | 14 | 279 | 0.0 | 0.0 | 0.00 | 0.00 | 0.00 | 64 | |
| 20260906082123 | 14 | 279 | 0.0 | 0.0 | 0.00 | 0.00 | 0.00 | 60 | |
| 20260906081623 | 15 | 279 | 0.0 | 0.0 | 0.00 | 0.00 | 0.00 | 59 | |
| 20260906081123 | 15 | 279 | 0.0 | 0.0 | 0.00 | 0.00 | 0.00 | 59 | |
| 20260906080623 | 15 | 279 | 0.0 | 0.0 | 0.00 | 0.00 | 0.00 | 58 | |
| 20260906080123 | 15 | 279 | 0.0 | 0.0 | 0.00 | 0.00 | 0.00 | 58 | |
| 20260906075623 | 15 | 279 | 0.0 | 0.0 | 0.00 | 0.00 | 0.00 | 57 | |
| 20260906075123 | 15 | 279 | 0.0 | 0.0 | 0.00 | 0.00 | 0.00 | 56 | |
| 20260906074623 | 16 | 279 | 0.0 | 0.0 | 0.00 | 0.00 | 0.00 | 57 | |
| 20260906074123 | 16 | 279 | 0.0 | 0.0 | 0.00 | 0.00 | 0.00 | 54 | |
| 20260906073623 | 16 | 279 | 0.0 | 0.0 | 0.00 | 0.00 | 0.00 | 54 | |
| 20260906073123 | 16 | 279 | 0.0 | 0.0 | 0.00 | 0.00 | 0.00 | 54 | |
| 20260906072623 | 16 | 279 | 0.0 | 0.0 | 0.00 | 0.00 | 0.00 | 55 | |
| 20260906072123 | 16 | 279 | 0.0 | 0.0 | 0.00 | 0.00 | 0.00 | 55 | |
| 20260906071623 | 16 | 279 | 0.0 | 0.0 | 0.00 | 0.00 | 0.00 | 56 | |
| 20260906071123 | 16 | 279 | 0.0 | 0.0 | 0.00 | 0.00 | 0.00 | 55 | |
| 20260906070623 | 16 | 279 | 0.0 | 0.0 | 0.00 | 0.00 | 0.00 | 54 | |
| 20260906070123 | 16 | 279 | 0.0 | 0.0 | 0.00 | 0.00 | 0.00 | 55 | |
| 20260906065623 | 16 | 279 | 0.0 | 0.0 | 0.00 | 0.00 | 0.00 | 55 | |
| 20260906065123 | 16 | 279 | 0.0 | 0.0 | 0.00 | 0.00 | 0.00 | 57 | |
| 20260906064623 | 16 | 279 | 0.0 | 0.0 | 0.00 | 0.00 | 0.00 | 56 | |
| 20260906064123 | 16 | 279 | 0.0 | 0.0 | 0.00 | 0.00 | 0.00 | 57 | |
| 20260906063623 | 16 | 279 | 0.0 | 0.0 | 0.00 | 0.00 | 0.00 | 55 | |
| 20260906063124 | 16 | 279 | 0.0 | 0.0 | 0.00 | 0.00 | 0.00 | 56 | |
| 20260906062623 | 16 | 279 | 0.0 | 0.0 | 0.00 | 0.00 | 0.00 | 55 | |
| 20260906062123 | 16 | 279 | 0.0 | 0.0 | 0.00 | 0.00 | 0.00 | 55 | |
| 20260906061623 | 16 | 279 | 0.0 | 0.0 | 0.00 | 0.00 | 0.00 | 55 | |
| 20260906061123 | 16 | 279 | 0.0 | 0.0 | 0.00 | 0.00 | 0.00 | 54 | |
| 20260906060623 | 16 | 279 | 0.0 | 0.0 | 0.00 | 0.00 | 0.00 | 53 | |
| 20260906060123 | 16 | 279 | 0.0 | 0.0 | 0.00 | 0.00 | 0.00 | 52 | |
| 20260906055623 | 17 | 279 | 0.0 | 0.0 | 0.00 | 0.00 | 0.00 | 54 | |
| 20260906055123 | 17 | 279 | 0.0 | 0.0 | 0.00 | 0.00 | 0.00 | 52 | |
| 20260906054623 | 17 | 279 | 0.0 | 0.0 | 0.00 | 0.00 | 0.00 | 50 | |
| 20260906054124 | 17 | 279 | 0.0 | 1.6 | 0.00 | 0.00 | 0.00 | 53 | |
| 20260906053623 | 17 | 275 | 0.0 | 8.0 | 0.00 | 0.00 | 0.00 | 50 | |
| 20260906053124 | 17 | 277 | 0.0 | 0.0 | 0.00 | 0.00 | 0.00 | 52 | |
| 20260906052624 | 17 | 277 | 0.0 | 0.0 | 0.00 | 0.00 | 0.00 | 50 | |
| 20260906052124 | 17 | 277 | 0.0 | 0.0 | 0.00 | 0.00 | 0.00 | 50 | |
| 20260906051624 | 17 | 277 | 0.0 | 0.0 | 0.00 | 0.00 | 0.00 | 49 | |
| 20260906051124 | 18 | 277 | 0.0 | 0.0 | 0.00 | 0.00 | 0.00 | 47 | |
| 20260906050624 | 18 | 277 | 0.0 | 0.0 | 0.00 | 0.00 | 0.00 | 47 | |
| 20260906050124 | 18 | 277 | 0.0 | 0.0 | 0.00 | 0.00 | 0.00 | 46 | |
| 20260906045624 | 18 | 277 | 0.0 | 0.0 | 0.00 | 0.00 | 0.00 | 46 | |
| 20260906045124 | 18 | 277 | 0.0 | 0.0 | 0.00 | 0.00 | 0.00 | 45 | |
| 20260906044624 | 19 | 277 | 0.0 | 0.0 | 0.00 | 0.00 | 0.00 | 44 | |
| 20260906044124 | 19 | 277 | 0.0 | 4.8 | 0.00 | 0.00 | 0.00 | 45 | |
| 20260906043624 | 19 | 307 | 0.0 | 0.0 | 0.00 | 0.00 | 0.00 | 43 | |
| 20260906043124 | 19 | 307 | 0.0 | 0.0 | 0.00 | 0.00 | 0.00 | 43 | |
| 20260906042624 | 19 | 307 | 0.0 | 0.0 | 0.00 | 0.00 | 0.00 | 44 | |
| 20260906042124 | 20 | 307 | 0.0 | 0.0 | 0.00 | 0.00 | 0.00 | 44 | |
| 20260906041624 | 19 | 307 | 0.0 | 0.0 | 0.00 | 0.00 | 0.00 | 44 | |
| 20260906041124 | 20 | 307 | 0.0 | 4.8 | 0.00 | 0.00 | 0.00 | 46 | |
| 20260906040624 | 20 | 184 | 0.0 | 0.0 | 0.00 | 0.00 | 0.00 | 44 | |
| 20260906040124 | 20 | 184 | 0.0 | 0.0 | 0.00 | 0.00 | 0.00 | 43 | |
| 20260906035624 | 21 | 184 | 0.0 | 0.0 | 0.00 | 0.00 | 0.00 | 41 | |
| 20260906035124 | 21 | 184 | 0.0 | 0.0 | 0.00 | 0.00 | 0.00 | 40 | |
| 20260906034624 | 21 | 184 | 0.0 | 0.0 | 0.00 | 0.00 | 0.00 | 39 | |
| 20260906034124 | 21 | 184 | 0.0 | 0.0 | 0.00 | 0.00 | 0.00 | 38 | |
| 20260906033624 | 21 | 184 | 0.0 | 0.0 | 0.00 | 0.00 | 0.00 | 37 | |
| 20260906033124 | 22 | 184 | 0.0 | 0.0 | 0.00 | 0.00 | 0.00 | 36 | |
| 20260906032624 | 22 | 184 | 0.0 | 0.0 | 0.00 | 0.00 | 0.00 | 35 | |
| 20260906032124 | 22 | 184 | 0.0 | 0.0 | 0.00 | 0.00 | 0.00 | 34 | |
| 20260906031624 | 22 | 184 | 0.0 | 0.0 | 0.00 | 0.00 | 0.00 | 33 | |
| 20260906031124 | 23 | 184 | 0.0 | 3.2 | 0.00 | 0.00 | 0.00 | 32 | |
| 20260906030624 | 23 | 78 | 3.2 | 9.7 | 0.00 | 0.00 | 0.00 | 31 | |
| 20260906030124 | 23 | 330 | 0.0 | 0.0 | 0.00 | 0.00 | 0.00 | 31 | |
| 20260906025624 | 23 | 330 | 0.0 | 0.0 | 0.00 | 0.00 | 0.00 | 30 | |
| 20260906025124 | 23 | 330 | 0.0 | 0.0 | 0.00 | 0.00 | 0.00 | 30 | |
| 20260906024624 | 23 | 330 | 0.0 | 0.0 | 0.00 | 0.00 | 0.00 | 29 | |
| 20260906024124 | 23 | 330 | 0.0 | 0.0 | 0.00 | 0.00 | 0.00 | 28 | |
| 20260906023624 | 23 | 330 | 0.0 | 1.6 | 0.00 | 0.00 | 0.00 | 29 | |
| 20260906023124 | 23 | 261 | 0.0 | 12.9 | 0.00 | 0.00 | 0.00 | 29 | |
| 20260906022624 | 23 | 243 | 12.9 | 16.1 | 0.00 | 0.00 | 0.00 | 28 | |
| 20260906022124 | 24 | 194 | 12.9 | 16.1 | 0.00 | 0.00 | 0.00 | 26 | |
| 20260906021624 | 25 | 143 | 12.9 | 20.9 | 0.00 | 0.00 | 0.00 | 25 | |
| 20260906021124 | 24 | 123 | 8.0 | 8.0 | 0.00 | 0.00 | 0.00 | 27 | |
| 20260906020624 | 24 | 163 | 3.2 | 16.1 | 0.00 | 0.00 | 0.00 | 27 | |
| 20260906020124 | 24 | 113 | 3.2 | 19.3 | 0.00 | 0.00 | 0.00 | 27 | |
| 20260906015624 | 24 | 95 | 8.0 | 14.5 | 0.00 | 0.00 | 0.00 | 27 | |
| 20260906015124 | 25 | 92 | 4.8 | 14.5 | 0.00 | 0.00 | 0.00 | 26 | |
| 20260906014624 | 25 | 37 | 0.0 | 14.5 | 0.00 | 0.00 | 0.00 | 26 | |
| 20260906014124 | 25 | 144 | 8.0 | 12.9 | 0.00 | 0.00 | 0.00 | 26 | |
| 20260906013624 | 25 | 158 | 8.0 | 14.5 | 0.00 | 0.00 | 0.00 | 26 | |
| 20260906013124 | 25 | 168 | 0.0 | 16.1 | 0.00 | 0.00 | 0.00 | 25 | |
| 20260906012624 | 25 | 127 | 3.2 | 9.7 | 0.00 | 0.00 | 0.00 | 23 | |
| 20260906012124 | 26 | 136 | 0.0 | 16.1 | 0.00 | 0.00 | 0.00 | 23 | |
| 20260906011624 | 26 | 137 | 9.7 | 16.1 | 0.00 | 0.00 | 0.00 | 23 | |
| 20260906011124 | 26 | 181 | 1.6 | 14.5 | 0.00 | 0.00 | 0.00 | 23 | |
| 20260906010624 | 26 | 104 | 0.0 | 4.8 | 0.00 | 0.00 | 0.00 | 21 | |
| 20260906010124 | 26 | 158 | 0.0 | 0.0 | 0.00 | 0.00 | 0.00 | 21 | |
| 20260906005624 | 26 | 158 | 0.0 | 0.0 | 0.00 | 0.00 | 0.00 | 20 | |
| 20260906005124 | 26 | 158 | 0.0 | 0.0 | 0.00 | 0.00 | 0.00 | 20 | |
| 20260906004624 | 26 | 158 | 0.0 | 1.6 | 0.00 | 0.00 | 0.00 | 20 | |
| 20260906004124 | 26 | 196 | 0.0 | 0.0 | 0.00 | 0.00 | 0.00 | 21 | |
| 20260906003624 | 26 | 196 | 0.0 | 3.2 | 0.00 | 0.00 | 0.00 | 21 | |
| 20260906003124 | 26 | 220 | 1.6 | 4.8 | 0.00 | 0.00 | 0.00 | 20 | |
| 20260906002624 | 26 | 130 | 1.6 | 3.2 | 0.00 | 0.00 | 0.00 | 19 | |
| 20260906002124 | 26 | 210 | 0.0 | 8.0 | 0.00 | 0.00 | 0.00 | 20 | |
| 20260906001624 | 26 | 168 | 6.4 | 9.7 | 0.00 | 0.00 | 0.00 | 20 | |
| 20260906001124 | 27 | 126 | 0.0 | 6.4 | 0.00 | 0.00 | 0.00 | 20 | |
| 20260906000624 | 27 | 120 | 0.0 | 0.0 | 0.00 | 0.00 | 0.00 | 20 | |
| 20260906000124 | 27 | 120 | 0.0 | 8.0 | 0.00 | 0.00 | 0.00 | 20 | |
| 20260905235624 | 27 | 205 | 6.4 | 9.7 | 0.00 | 0.00 | 0.00 | 19 | |
| 20260905235124 | 27 | 244 | 1.6 | 16.1 | 0.00 | 0.00 | 0.00 | 18 | |
| 20260905234624 | 27 | 158 | 8.0 | 9.7 | 0.00 | 0.00 | 0.00 | 18 | |
| 20260905234124 | 27 | 143 | 1.6 | 9.7 | 0.00 | 0.00 | 0.00 | 18 | |
| 20260905233624 | 27 | 161 | 0.0 | 4.8 | 0.00 | 0.00 | 0.00 | 18 | |
| 20260905233124 | 27 | 108 | 0.0 | 8.0 | 0.00 | 0.00 | 0.00 | 17 | |
| 20260905232624 | 27 | 146 | 1.6 | 9.7 | 0.00 | 0.00 | 0.00 | 17 | |
| 20260905232124 | 27 | 130 | 0.0 | 14.5 | 0.00 | 0.00 | 0.00 | 17 | |
| 20260905231624 | 27 | 92 | 0.0 | 6.4 | 0.00 | 0.00 | 0.00 | 17 | |
| 20260905231124 | 27 | 180 | 0.0 | 9.7 | 0.00 | 0.00 | 0.00 | 17 | |
| 20260905230624 | 28 | 147 | 0.0 | 11.3 | 0.00 | 0.10 | 0.00 | 16 | |
| 20260905230124 | 28 | 160 | 4.8 | 12.9 | 0.00 | 0.10 | 0.00 | 16 | |
| 20260905225624 | 28 | 194 | 12.9 | 14.5 | 0.00 | 0.10 | 0.00 | 16 |